SWA2151 KMDW-KDCA

Flight info

Callsign SWA2151
Flight time 1h 19m
Altitude 37000
Route LEWKE GIJ OTENS ANEWA JERRI NUSMM BUCKO FRDMM6
Aircraft B38M/M-SDE1FGHILORVWXY/HB1

Departure

Time 2026-05-04 18:48
Airport Chicago Midway International Airport (KMDW)

Arrival

Time 2026-05-04 20:07
Airport Ronald Reagan Washington National Airport (KDCA)
Time Latitude Longitude Altitude Speed Heading
2026-05-04 18:04 41.78715 -87.74240 631 ft 0 kts 90°
2026-05-04 18:37 41.78715 -87.74247 631 ft 4 kts 91°
2026-05-04 18:37 41.78716 -87.74283 631 ft 4 kts 94°
2026-05-04 18:37 41.78721 -87.74318 631 ft 4 kts 114°
2026-05-04 18:37 41.78736 -87.74345 638 ft 3 kts 143°
2026-05-04 18:38 41.78740 -87.74349 631 ft 1 kts 146°
2026-05-04 18:43 41.78733 -87.74343 631 ft 2 kts 148°
2026-05-04 18:43 41.78711 -87.74342 635 ft 5 kts 200°
2026-05-04 18:44 41.78679 -87.74371 635 ft 6 kts 220°
2026-05-04 18:44 41.78655 -87.74401 636 ft 8 kts 224°
2026-05-04 18:44 41.78579 -87.74496 634 ft 14 kts 223°
2026-05-04 18:44 41.78516 -87.74575 634 ft 10 kts 223°
2026-05-04 18:45 41.78521 -87.74658 631 ft 11 kts 299°
2026-05-04 18:45 41.78579 -87.74742 631 ft 14 kts 310°
2026-05-04 18:45 41.78672 -87.74786 637 ft 16 kts
2026-05-04 18:45 41.78769 -87.74693 635 ft 19 kts 45°
2026-05-04 18:46 41.78872 -87.74565 633 ft 21 kts 43°
2026-05-04 18:46 41.78978 -87.74431 632 ft 19 kts 43°
2026-05-04 18:46 41.79069 -87.74317 632 ft 13 kts 44°
2026-05-04 18:46 41.79128 -87.74260 633 ft 10 kts
2026-05-04 18:47 41.79177 -87.74318 631 ft 9 kts 264°
2026-05-04 18:47 41.79141 -87.74383 633 ft 12 kts 224°
2026-05-04 18:47 41.78880 -87.74711 636 ft 92 kts 223°
2026-05-04 18:47 41.78232 -87.75526 639 ft 161 kts 222°
2026-05-04 18:48 41.77344 -87.76635 1196 ft 180 kts 224°
2026-05-04 18:48 41.76405 -87.77903 1799 ft 201 kts 226°
2026-05-04 18:48 41.75385 -87.79269 2536 ft 212 kts 226°
2026-05-04 18:48 41.74314 -87.80681 3252 ft 213 kts 226°
2026-05-04 18:49 41.73256 -87.82136 3877 ft 224 kts 225°
2026-05-04 18:49 41.71948 -87.83291 4433 ft 235 kts 199°
2026-05-04 18:49 41.70292 -87.83285 4895 ft 255 kts 165°
2026-05-04 18:49 41.68797 -87.81969 5515 ft 270 kts 136°
2026-05-04 18:50 41.67878 -87.79716 6061 ft 286 kts 106°
2026-05-04 18:50 41.67864 -87.77033 6580 ft 293 kts 76°
2026-05-04 18:50 41.68463 -87.74386 7095 ft 300 kts 73°
2026-05-04 18:50 41.68935 -87.71668 7703 ft 300 kts 81°
2026-05-04 18:51 41.69287 -87.68859 8196 ft 309 kts 82°
2026-05-04 18:51 41.69595 -87.66008 8552 ft 319 kts 83°
2026-05-04 18:51 41.69877 -87.63050 9094 ft 318 kts 84°
2026-05-04 18:51 41.70146 -87.60131 9714 ft 319 kts 83°
2026-05-04 18:52 41.70489 -87.57189 10147 ft 324 kts 82°
2026-05-04 18:52 41.70849 -87.54131 10250 ft 341 kts 82°
2026-05-04 18:52 41.71199 -87.50916 10304 ft 356 kts 83°
2026-05-04 18:52 41.71559 -87.47592 10425 ft 366 kts 82°
2026-05-04 18:53 41.71933 -87.44204 10705 ft 369 kts 82°
2026-05-04 18:53 41.72318 -87.40794 10998 ft 371 kts 82°
2026-05-04 18:53 41.72704 -87.37378 11309 ft 372 kts 82°
2026-05-04 18:53 41.73093 -87.33944 11606 ft 375 kts 82°
2026-05-04 18:54 41.73484 -87.30474 12398 ft 376 kts 82°
2026-05-04 18:54 41.73879 -87.27001 13187 ft 381 kts 82°
2026-05-04 18:54 41.74277 -87.23470 13923 ft 386 kts 82°
2026-05-04 18:54 41.74677 -87.19911 14668 ft 388 kts 82°
2026-05-04 18:55 41.75080 -87.16316 15414 ft 391 kts 81°
2026-05-04 18:55 41.75892 -87.09049 16863 ft 398 kts 81°
2026-05-04 18:55 41.76190 -87.05350 17542 ft 402 kts 90°
2026-05-04 18:56 41.76164 -87.01596 18178 ft 405 kts 90°
2026-05-04 18:56 41.76181 -86.97806 18756 ft 408 kts 90°
2026-05-04 18:56 41.76214 -86.93991 19343 ft 411 kts 89°
2026-05-04 18:56 41.76257 -86.90199 19899 ft 414 kts 89°
2026-05-04 18:57 41.76305 -86.86276 20474 ft 417 kts 89°
2026-05-04 18:57 41.76353 -86.82431 21033 ft 420 kts 89°
2026-05-04 18:57 41.76400 -86.78512 21593 ft 423 kts 89°
2026-05-04 18:57 41.76447 -86.74561 22139 ft 426 kts 89°
2026-05-04 18:58 41.76492 -86.70581 22671 ft 429 kts 89°
2026-05-04 18:58 41.76537 -86.66572 23217 ft 432 kts 89°
2026-05-04 18:58 41.76580 -86.62549 23674 ft 434 kts 89°
2026-05-04 18:58 41.76623 -86.58494 24114 ft 437 kts 89°
2026-05-04 18:59 41.76664 -86.54417 24570 ft 439 kts 89°
2026-05-04 18:59 41.76704 -86.50318 25006 ft 441 kts 89°
2026-05-04 18:59 41.76743 -86.46196 25443 ft 443 kts 89°
2026-05-04 18:59 41.76780 -86.42055 25870 ft 446 kts 89°
2026-05-04 19:00 41.76817 -86.37893 26277 ft 448 kts 88°
2026-05-04 19:00 41.76852 -86.33708 26683 ft 450 kts 89°
2026-05-04 19:00 41.76670 -86.29520 27058 ft 453 kts 96°
2026-05-04 19:00 41.76371 -86.25311 27447 ft 455 kts 95°
2026-05-04 19:01 41.76098 -86.21076 27836 ft 458 kts 94°
2026-05-04 19:01 41.75834 -86.16812 28228 ft 460 kts 94°
2026-05-04 19:01 41.75575 -86.12546 28607 ft 461 kts 94°
2026-05-04 19:01 41.75317 -86.08308 28966 ft 464 kts 94°
2026-05-04 19:02 41.75053 -86.03994 29332 ft 466 kts 94°
2026-05-04 19:02 41.74787 -85.99660 29679 ft 468 kts 94°
2026-05-04 19:02 41.74517 -85.95306 29983 ft 470 kts 94°
2026-05-04 19:02 41.74245 -85.90932 30268 ft 472 kts 94°
2026-05-04 19:03 41.73970 -85.86539 30549 ft 475 kts 94°
2026-05-04 19:03 41.73692 -85.82135 30818 ft 477 kts 94°
2026-05-04 19:03 41.73411 -85.77702 31107 ft 479 kts 94°
2026-05-04 19:03 41.73127 -85.73249 31376 ft 481 kts 94°
2026-05-04 19:04 41.72840 -85.68778 31656 ft 483 kts 94°
2026-05-04 19:04 41.72551 -85.64288 31914 ft 485 kts 94°
2026-05-04 19:04 41.72257 -85.59778 32187 ft 487 kts 94°
2026-05-04 19:04 41.71962 -85.55251 32456 ft 489 kts 94°
2026-05-04 19:05 41.71663 -85.50714 32713 ft 491 kts 94°
2026-05-04 19:05 41.71361 -85.46146 32992 ft 493 kts 94°
2026-05-04 19:05 41.71057 -85.41578 33327 ft 493 kts 94°
2026-05-04 19:05 41.70755 -85.37076 33680 ft 492 kts 94°
2026-05-04 19:06 41.70448 -85.32517 33976 ft 492 kts 94°
2026-05-04 19:06 41.70139 -85.27959 34285 ft 492 kts 94°
2026-05-04 19:06 41.69829 -85.23405 34580 ft 491 kts 94°
2026-05-04 19:06 41.69517 -85.18852 34866 ft 491 kts 95°
2026-05-04 19:07 41.69203 -85.14312 35148 ft 491 kts 95°
2026-05-04 19:07 41.68888 -85.09760 35416 ft 491 kts 95°
2026-05-04 19:07 41.68570 -85.05210 35687 ft 491 kts 95°
2026-05-04 19:07 41.68251 -85.00663 35934 ft 491 kts 95°
2026-05-04 19:08 41.67930 -84.96113 36166 ft 491 kts 95°
2026-05-04 19:08 41.67608 -84.91564 36418 ft 491 kts 95°
2026-05-04 19:08 41.67285 -84.87023 36648 ft 491 kts 95°
2026-05-04 19:08 41.66959 -84.82470 36728 ft 492 kts 95°
2026-05-04 19:09 41.66515 -84.73377 36711 ft 489 kts 92°
2026-05-04 19:09 41.66134 -84.64285 36699 ft 490 kts 92°
2026-05-04 19:10 41.65735 -84.55169 36699 ft 491 kts 92°
2026-05-04 19:10 41.65328 -84.46047 36701 ft 491 kts 92°
2026-05-04 19:11 41.64915 -84.36932 36709 ft 491 kts 92°
2026-05-04 19:11 41.64494 -84.27814 36712 ft 491 kts 92°
2026-05-04 19:12 41.63849 -84.14137 36710 ft 491 kts 92°
2026-05-04 19:13 41.63410 -84.05030 36709 ft 491 kts 92°
2026-05-04 19:13 41.62967 -83.95974 36719 ft 491 kts 92°
2026-05-04 19:14 41.62514 -83.86857 36719 ft 491 kts 92°
2026-05-04 19:14 41.62053 -83.77747 36721 ft 491 kts 93°
2026-05-04 19:15 41.61587 -83.68642 36719 ft 491 kts 93°
2026-05-04 19:15 41.60920 -83.59562 36703 ft 491 kts 105°
2026-05-04 19:16 41.58976 -83.50815 36678 ft 492 kts 106°
2026-05-04 19:16 41.57040 -83.42086 36737 ft 491 kts 107°
2026-05-04 19:17 41.55083 -83.33366 36733 ft 490 kts 107°
2026-05-04 19:17 41.53118 -83.24650 36729 ft 490 kts 107°
2026-05-04 19:18 41.51148 -83.15951 36730 ft 490 kts 107°
2026-05-04 19:18 41.49171 -83.07247 36731 ft 491 kts 107°
2026-05-04 19:19 41.47183 -82.98535 36738 ft 491 kts 107°
2026-05-04 19:19 41.45202 -82.89887 36738 ft 491 kts 107°
2026-05-04 19:20 41.43203 -82.81192 36741 ft 491 kts 107°
2026-05-04 19:20 41.41195 -82.72491 36742 ft 492 kts 107°
2026-05-04 19:21 41.39145 -82.63798 36741 ft 491 kts 112°
2026-05-04 19:21 41.37539 -82.59824 36717 ft 486 kts 129°
2026-05-04 19:21 41.35324 -82.56446 36773 ft 485 kts 135°
2026-05-04 19:22 41.30670 -82.49891 36759 ft 486 kts 136°
2026-05-04 19:22 41.26756 -82.44532 36769 ft 486 kts 136°
2026-05-04 19:23 41.21259 -82.37080 36774 ft 486 kts 137°
2026-05-04 19:23 41.16512 -82.30662 36779 ft 487 kts 137°
2026-05-04 19:24 41.11767 -82.24260 36778 ft 487 kts 137°
2026-05-04 19:24 41.07785 -82.18901 36763 ft 487 kts 136°
2026-05-04 19:25 41.03039 -82.12524 36801 ft 486 kts 136°
2026-05-04 19:25 40.98287 -82.06154 36811 ft 486 kts 136°
2026-05-04 19:26 40.93563 -81.99834 36831 ft 486 kts 137°
2026-05-04 19:26 40.88804 -81.93482 36819 ft 486 kts 137°
2026-05-04 19:27 40.84041 -81.87138 36808 ft 486 kts 136°
2026-05-04 19:27 40.79281 -81.80812 36816 ft 486 kts 136°
2026-05-04 19:28 40.74515 -81.74492 36818 ft 486 kts 137°
2026-05-04 19:28 40.69746 -81.68181 36815 ft 486 kts 137°
2026-05-04 19:29 40.64972 -81.61877 36825 ft 486 kts 136°
2026-05-04 19:29 40.60195 -81.55582 36837 ft 486 kts 136°
2026-05-04 19:30 40.55445 -81.49337 36836 ft 486 kts 136°
2026-05-04 19:30 40.50659 -81.43057 36841 ft 486 kts 136°
2026-05-04 19:31 40.45870 -81.36787 36842 ft 486 kts 137°
2026-05-04 19:31 40.41082 -81.30533 36839 ft 486 kts 137°
2026-05-04 19:32 40.36318 -81.24322 36844 ft 486 kts 136°
2026-05-04 19:32 40.31519 -81.18078 36840 ft 486 kts 137°
2026-05-04 19:33 40.26711 -81.11837 36845 ft 486 kts 137°
2026-05-04 19:33 40.21905 -81.05612 36847 ft 486 kts 137°
2026-05-04 19:34 40.17094 -80.99392 36849 ft 486 kts 137°
2026-05-04 19:34 40.12280 -80.93180 36853 ft 486 kts 137°
2026-05-04 19:35 40.07468 -80.86982 36866 ft 486 kts 137°
2026-05-04 19:35 40.02723 -80.80773 36862 ft 486 kts 135°
2026-05-04 19:36 39.98051 -80.74387 36855 ft 486 kts 135°
2026-05-04 19:36 39.93364 -80.68024 36862 ft 487 kts 135°
2026-05-04 19:37 39.88674 -80.61672 36862 ft 486 kts 135°
2026-05-04 19:37 39.83983 -80.55333 36865 ft 486 kts 135°
2026-05-04 19:38 39.79298 -80.49013 36873 ft 486 kts 135°
2026-05-04 19:38 39.74602 -80.42695 36879 ft 485 kts 135°
2026-05-04 19:39 39.69905 -80.36388 36880 ft 486 kts 135°
2026-05-04 19:39 39.65208 -80.30092 36894 ft 486 kts 135°
2026-05-04 19:40 39.60502 -80.23798 36714 ft 485 kts 135°
2026-05-04 19:40 39.58157 -80.20665 36447 ft 483 kts 136°
2026-05-04 19:40 39.55814 -80.17541 36169 ft 483 kts 136°
2026-05-04 19:40 39.53471 -80.14420 35907 ft 483 kts 136°
2026-05-04 19:41 39.51133 -80.11308 35650 ft 483 kts 136°
2026-05-04 19:41 39.48786 -80.08186 35380 ft 483 kts 136°
2026-05-04 19:41 39.46488 -80.05133 34851 ft 479 kts 136°
2026-05-04 19:41 39.44117 -80.01987 33843 ft 487 kts 136°
2026-05-04 19:42 39.41748 -79.98849 32720 ft 489 kts 136°
2026-05-04 19:42 39.39408 -79.95749 32128 ft 485 kts 136°
2026-05-04 19:42 39.37075 -79.92661 31832 ft 475 kts 137°
2026-05-04 19:42 39.34792 -79.89641 31460 ft 467 kts 137°
2026-05-04 19:43 39.32537 -79.86642 30985 ft 467 kts 135°
2026-05-04 19:43 39.30599 -79.83222 30544 ft 476 kts 120°
2026-05-04 19:43 39.29415 -79.79236 30269 ft 479 kts 102°
2026-05-04 19:44 39.28506 -79.70668 30244 ft 487 kts 96°
2026-05-04 19:44 39.27765 -79.61967 30245 ft 487 kts 95°
2026-05-04 19:45 39.27063 -79.53284 30240 ft 487 kts 95°
2026-05-04 19:45 39.26358 -79.44588 29793 ft 485 kts 95°
2026-05-04 19:45 39.26006 -79.40280 29216 ft 481 kts 95°
2026-05-04 19:46 39.25657 -79.36028 28792 ft 474 kts 95°
2026-05-04 19:46 39.25316 -79.31890 28421 ft 468 kts 95°
2026-05-04 19:46 39.24971 -79.27716 27997 ft 467 kts 95°
2026-05-04 19:46 39.24626 -79.23572 27579 ft 464 kts 95°
2026-05-04 19:47 39.24277 -79.19456 27134 ft 459 kts 95°
2026-05-04 19:47 39.23931 -79.15367 26755 ft 456 kts 95°
2026-05-04 19:47 39.23586 -79.11317 26380 ft 453 kts 96°
2026-05-04 19:47 39.23243 -79.07296 25967 ft 450 kts 96°
2026-05-04 19:48 39.22900 -79.03304 25576 ft 445 kts 95°
2026-05-04 19:48 39.22560 -78.99355 25213 ft 441 kts 95°
2026-05-04 19:48 39.22205 -78.95438 24783 ft 438 kts 96°
2026-05-04 19:48 39.21830 -78.91555 24339 ft 435 kts 96°
2026-05-04 19:49 39.21461 -78.87716 23958 ft 430 kts 96°
2026-05-04 19:49 39.21096 -78.83909 23570 ft 426 kts 96°
2026-05-04 19:49 39.20732 -78.80133 23114 ft 423 kts 96°
2026-05-04 19:49 39.20371 -78.76389 22674 ft 419 kts 97°
2026-05-04 19:50 39.20010 -78.72677 22241 ft 417 kts 97°
2026-05-04 19:50 39.19645 -78.68959 21566 ft 419 kts 97°
2026-05-04 19:50 39.19279 -78.65230 21040 ft 418 kts 97°
2026-05-04 19:50 39.18912 -78.61520 20525 ft 417 kts 97°
2026-05-04 19:51 39.18545 -78.57814 19995 ft 417 kts 97°
2026-05-04 19:51 39.18179 -78.54121 19487 ft 415 kts 97°
2026-05-04 19:51 39.17814 -78.50454 18958 ft 407 kts 97°
2026-05-04 19:51 39.17461 -78.46926 18439 ft 397 kts 98°
2026-05-04 19:52 39.17110 -78.43432 17881 ft 394 kts 98°
2026-05-04 19:52 39.16758 -78.39925 17316 ft 393 kts 98°
2026-05-04 19:52 39.16366 -78.36482 16855 ft 382 kts 104°
2026-05-04 19:52 39.15589 -78.33221 16539 ft 382 kts 109°
2026-05-04 19:53 39.14775 -78.29956 16227 ft 383 kts 109°
2026-05-04 19:53 39.13966 -78.26698 15894 ft 382 kts 109°
2026-05-04 19:53 39.13158 -78.23448 15555 ft 380 kts 109°
2026-05-04 19:53 39.12354 -78.20215 15217 ft 378 kts 109°
2026-05-04 19:54 39.11552 -78.16994 14862 ft 377 kts 109°
2026-05-04 19:54 39.10752 -78.13785 14543 ft 376 kts 109°
2026-05-04 19:54 39.09948 -78.10591 14183 ft 375 kts 109°
2026-05-04 19:54 39.09139 -78.07417 13810 ft 370 kts 109°
2026-05-04 19:55 39.08338 -78.04272 13471 ft 371 kts 109°
2026-05-04 19:55 39.07536 -78.01129 13113 ft 367 kts 109°
2026-05-04 19:55 39.06754 -77.98067 12736 ft 353 kts 109°
2026-05-04 19:55 39.06000 -77.95121 12418 ft 340 kts 110°
2026-05-04 19:56 39.05272 -77.92288 12178 ft 330 kts 110°
2026-05-04 19:56 39.04554 -77.89489 11899 ft 329 kts 110°
2026-05-04 19:56 39.03837 -77.86699 11579 ft 328 kts 110°
2026-05-04 19:56 39.03123 -77.83925 11268 ft 327 kts 110°
2026-05-04 19:57 39.02409 -77.81155 10968 ft 323 kts 110°
2026-05-04 19:57 39.01713 -77.78454 10682 ft 317 kts 110°
2026-05-04 19:57 39.01018 -77.75761 10416 ft 317 kts 110°
2026-05-04 19:57 39.00336 -77.73119 10112 ft 316 kts 109°
2026-05-04 19:58 38.99643 -77.70444 9826 ft 315 kts 110°
2026-05-04 19:58 38.98951 -77.67774 9530 ft 314 kts 110°
2026-05-04 19:58 38.98246 -77.65135 9218 ft 309 kts 112°
2026-05-04 19:58 38.97490 -77.62578 8913 ft 305 kts 112°
2026-05-04 19:59 38.96742 -77.60035 8642 ft 303 kts 112°
2026-05-04 19:59 38.96000 -77.57506 8398 ft 303 kts 113°
2026-05-04 19:59 38.95263 -77.54988 8108 ft 297 kts 113°
2026-05-04 19:59 38.94704 -77.52493 8052 ft 290 kts 95°
2026-05-04 20:00 38.94947 -77.49939 7989 ft 290 kts 69°
2026-05-04 20:00 38.95726 -77.47539 7997 ft 293 kts 66°
2026-05-04 20:00 38.96514 -77.45125 7995 ft 293 kts 66°
2026-05-04 20:00 38.97310 -77.42713 7723 ft 294 kts 66°
2026-05-04 20:01 38.98112 -77.40293 7194 ft 296 kts 66°
2026-05-04 20:01 38.98926 -77.37849 6620 ft 300 kts 67°
2026-05-04 20:01 38.99748 -77.35380 6030 ft 302 kts 67°
2026-05-04 20:01 39.00580 -77.32888 5452 ft 304 kts 67°
2026-05-04 20:02 39.01414 -77.30405 4985 ft 301 kts 68°
2026-05-04 20:02 39.02232 -77.27970 4692 ft 291 kts 68°
2026-05-04 20:02 39.02810 -77.25545 4343 ft 279 kts 89°
2026-05-04 20:02 39.02438 -77.23206 3989 ft 261 kts 122°
2026-05-04 20:03 39.01354 -77.21467 3739 ft 242 kts 140°
2026-05-04 20:03 39.00183 -77.19987 3529 ft 230 kts 140°
2026-05-04 20:03 38.99060 -77.18587 3312 ft 220 kts 141°
2026-05-04 20:03 38.98002 -77.17243 3102 ft 207 kts 140°
2026-05-04 20:04 38.96999 -77.15964 2879 ft 201 kts 141°
2026-05-04 20:04 38.95981 -77.14754 2644 ft 199 kts 144°
2026-05-04 20:04 38.94950 -77.13605 2468 ft 197 kts 144°
2026-05-04 20:04 38.93923 -77.12460 2435 ft 192 kts 143°
2026-05-04 20:05 38.92882 -77.11533 2465 ft 172 kts 157°
2026-05-04 20:05 38.91879 -77.10878 2492 ft 156 kts 155°
2026-05-04 20:05 38.90988 -77.10082 2254 ft 158 kts 141°
2026-05-04 20:05 38.90443 -77.08802 1729 ft 180 kts 104°
2026-05-04 20:06 38.90326 -77.07120 1028 ft 191 kts 100°
2026-05-04 20:06 38.89901 -77.05651 877 ft 163 kts 136°
2026-05-04 20:06 38.89071 -77.04754 751 ft 153 kts 151°
2026-05-04 20:06 38.88105 -77.04210 494 ft 151 kts 168°
2026-05-04 20:07 38.87080 -77.03970 250 ft 147 kts 176°
2026-05-04 20:07 38.86103 -77.03867 71 ft 136 kts 179°
2026-05-04 20:07 38.85259 -77.03786 28 ft 94 kts 175°
2026-05-04 20:07 38.84826 -77.03743 26 ft 32 kts 175°
2026-05-04 20:08 38.84579 -77.03720 27 ft 40 kts 174°
2026-05-04 20:08 38.84402 -77.03751 27 ft 15 kts 236°
2026-05-04 20:08 38.84390 -77.03825 27 ft 2 kts 272°
2026-05-04 20:08 38.84387 -77.03855 27 ft 7 kts 264°
2026-05-04 20:09 38.84381 -77.03965 29 ft 18 kts 270°
2026-05-04 20:09 38.84386 -77.04097 27 ft 11 kts 300°
2026-05-04 20:09 38.84466 -77.04127 27 ft 14 kts 352°
2026-05-04 20:09 38.84554 -77.04145 27 ft 10 kts 342°
2026-05-04 20:10 38.84571 -77.04215 27 ft 10 kts 264°
2026-05-04 20:10 38.84565 -77.04306 27 ft 11 kts 277°
2026-05-04 20:10 38.84617 -77.04387 27 ft 12 kts 319°
2026-05-04 20:10 38.84673 -77.04412 27 ft 7 kts 13°
2026-05-04 20:11 38.84724 -77.04383 27 ft 4 kts 42°
2026-05-04 20:11 38.84724 -77.04345 27 ft 4 kts 125°
2026-05-04 20:11 38.84718 -77.04334 27 ft 2 kts 127°
2026-05-04 20:11 38.84717 -77.04332 27 ft 0 kts 127°